DateTimeUTC,F1_A11,F1_S11,BsB_S11,BsG_S11,BsR_S11,BbsB_S11,BbsG_S11,BbsR_S11,BaB_A11,BaG_A11,BaR_A11,Tu_S11,T_S11,Uu_S11,U_S11,P_S11,T1_A11
2021-07-17T04:00:00Z,00000200,20000000,,,,,,,0000.08,0000.04,0000.14,18.2,24.9,08.1,05.4,0675.6,31.0
2021-07-17T04:01:00Z,00000200,20000000,,,,,,,-000.04,0000.08,-000.29,18.2,24.9,08.1,05.4,0675.6,31.0
2021-07-17T04:02:00Z,00000200,20000000,,,,,,,-000.17,-000.26,0000.33,18.2,24.9,08.1,05.4,0675.6,31.0
2021-07-17T04:03:00Z,00000200,60000000,,,,,,,-000.13,-000.15,-000.28,18.2,24.9,08.1,05.4,0675.6,31.0
2021-07-17T04:04:00Z,00000200,40000000,-000.49,0000.13,0000.16,-000.66,0000.20,-000.26,0000.01,0000.39,-000.16,18.2,24.7,07.8,05.3,0676.6,31.0
2021-07-17T04:05:00Z,00000200,00000000,-000.20,-000.02,-000.00,-000.54,0000.17,0000.16,-000.16,-000.20,-000.14,18.2,24.6,07.8,05.3,0676.6,31.0
2021-07-17T04:06:00Z,00000200,00000000,0000.82,0000.36,-000.01,0000.22,0000.09,0000.10,0000.50,0000.37,0000.53,18.3,24.6,07.8,05.3,0676.6,31.0
2021-07-17T04:07:00Z,00000200,00000000,0000.50,-000.04,-000.03,0000.22,-000.17,-000.25,-000.36,-000.37,0000.19,18.4,24.7,07.8,05.3,0676.6,31.0
2021-07-17T04:08:00Z,00000200,00000000,0000.34,0000.23,-000.07,-000.72,0000.29,0000.21,-000.13,0000.31,-000.23,18.4,24.7,07.6,05.2,0676.6,31.0
2021-07-17T04:09:00Z,00000200,00000000,0000.37,0000.15,-000.35,0000.16,-000.05,-000.43,0000.12,-000.48,-000.52,18.4,24.7,07.6,05.2,0676.6,31.0
2021-07-17T04:10:00Z,00000200,00000000,0000.78,0000.08,-000.43,-000.13,-000.18,0000.12,0000.22,0000.04,0000.10,18.4,24.7,07.5,05.1,0676.6,31.0
2021-07-17T04:11:00Z,00000200,00000000,-000.21,0000.15,-000.08,0000.03,-000.19,-000.09,-000.54,-000.21,0000.01,18.4,24.7,07.4,05.0,0676.6,31.0
2021-07-17T04:12:00Z,00000200,00000000,0000.46,0000.25,-000.14,-000.18,0000.21,-000.01,0000.18,0000.17,0000.12,18.4,24.7,07.5,05.1,0676.6,31.0
2021-07-17T04:13:00Z,00000200,00000000,0000.28,0000.12,0000.06,0000.05,-000.04,-000.04,0000.05,0000.06,-000.13,18.4,24.6,07.5,05.1,0676.6,31.0
2021-07-17T04:14:00Z,00000200,00000000,0000.06,0000.29,-000.10,-000.37,0000.32,0000.16,0000.01,0000.08,0000.07,18.4,24.6,07.5,05.1,0676.6,31.0
2021-07-17T04:15:00Z,00000200,00000000,-000.15,0000.08,-000.38,-000.44,0000.19,-000.27,-000.04,-000.40,-000.25,18.3,24.6,07.4,05.0,0676.6,31.0
2021-07-17T04:16:00Z,00000200,00000000,0000.60,0000.20,0000.04,-000.11,0000.01,-000.14,0000.05,0000.34,0000.15,18.3,24.6,07.5,05.1,0676.6,31.0
2021-07-17T04:17:00Z,00000200,00000000,0000.25,0000.01,0000.22,-000.28,0000.21,0000.05,-000.19,-000.31,0000.03,18.3,24.6,07.4,05.0,0676.6,31.0
2021-07-17T04:18:00Z,00000200,00000000,0000.29,0000.22,-000.18,-000.33,0000.03,0000.17,-000.08,0000.12,-000.11,18.3,24.6,07.4,05.0,0676.6,31.0
2021-07-17T04:19:00Z,00000200,00000000,0000.00,0000.09,-000.34,0000.02,0000.08,0000.06,0000.33,0000.16,0000.08,18.2,24.6,07.5,05.1,0676.6,31.0
2021-07-17T04:20:00Z,00000200,00000000,0000.55,0000.13,-000.43,-000.12,0000.07,0000.05,0000.07,0000.15,0000.02,18.2,24.6,07.6,05.2,0676.6,31.0
2021-07-17T04:21:00Z,00000200,00000000,0000.49,0000.23,-000.12,-000.99,-000.17,0000.04,0000.02,-000.33,0000.22,18.3,24.6,07.4,05.0,0676.6,31.0
2021-07-17T04:22:00Z,00000200,00000000,0000.75,-000.08,-000.19,-000.86,-000.05,0000.22,-000.07,0000.28,-000.17,18.4,24.6,07.4,05.0,0676.6,31.0
2021-07-17T04:23:00Z,00000200,00000000,0000.39,0000.39,-000.11,-000.01,-000.08,0000.04,0000.10,0000.18,-000.18,18.4,24.7,07.4,05.0,0676.6,31.0
2021-07-17T04:24:00Z,00000200,00000000,-000.20,-000.20,-000.19,-000.27,-000.04,-000.10,-000.22,-000.17,0000.17,18.5,24.6,07.3,05.0,0676.5,31.0
2021-07-17T04:25:00Z,00000200,00000000,0000.58,0000.17,-000.36,-000.07,0000.06,-000.31,-000.07,-000.12,-000.08,18.4,24.7,07.2,04.9,0676.6,31.0
2021-07-17T04:26:00Z,00000200,00000000,0000.39,0000.01,-000.01,0000.08,0000.18,-000.07,0000.07,0000.06,-000.25,18.4,24.6,07.2,04.9,0676.6,31.0
2021-07-17T04:27:00Z,00000200,00000000,0000.47,0000.21,-000.03,-000.54,0000.11,0000.17,-000.13,-000.38,0000.20,18.4,24.6,07.2,04.9,0676.6,31.0
2021-07-17T04:28:00Z,00000200,00000000,0000.36,0000.15,-000.34,-000.05,-000.08,-000.29,-000.12,-000.04,0000.10,18.4,24.6,07.0,04.8,0676.6,31.0
2021-07-17T04:29:00Z,00000200,00000000,0000.94,0000.01,-000.26,0000.11,0000.19,-000.34,-000.08,-000.00,-000.44,18.3,24.6,06.9,04.7,0676.6,31.0
2021-07-17T04:30:00Z,00000200,00000000,0000.68,0000.19,-000.25,0000.26,0000.09,-000.06,-000.24,0000.20,-000.30,18.3,24.6,07.0,04.7,0676.6,31.0
2021-07-17T04:31:00Z,00000200,00000000,-000.13,0000.06,-000.15,0000.10,0000.09,0000.16,0000.33,-000.18,0000.44,18.3,24.6,06.9,04.7,0676.6,31.0
2021-07-17T04:32:00Z,00000200,00000000,0001.39,0000.03,-000.25,-000.20,-000.01,-000.08,-000.32,-000.14,0000.21,18.3,24.5,06.9,04.7,0676.6,31.0
2021-07-17T04:33:00Z,00000200,00000000,0000.69,0000.07,0000.13,-000.30,0000.09,0000.26,0000.14,-000.16,-000.34,18.2,24.5,06.8,04.6,0676.6,31.0
2021-07-17T04:34:00Z,00000200,00000000,0000.62,0000.50,0000.08,0000.07,-000.11,-000.01,0000.14,0000.29,0000.05,18.2,24.5,06.9,04.7,0676.6,31.0
2021-07-17T04:35:00Z,00000200,00000000,0001.12,0000.20,0000.12,0000.02,-000.13,0000.04,0000.17,0000.18,0000.06,18.2,24.5,06.9,04.7,0676.6,31.0
2021-07-17T04:36:00Z,00000200,00000000,0001.03,0000.28,-000.12,-000.42,0000.01,0000.11,-000.11,0000.19,0000.06,18.3,24.5,07.0,04.7,0676.6,31.0
2021-07-17T04:37:00Z,00000200,00000000,0000.08,0000.36,0000.00,0000.04,0000.11,-000.24,0000.31,-000.09,0000.18,18.3,24.5,06.8,04.7,0676.6,31.0
2021-07-17T04:38:00Z,00000200,00000000,0001.00,-000.13,-000.06,-000.23,-000.00,0000.00,-000.23,-000.10,-000.08,18.4,24.6,06.8,04.6,0676.6,31.0
2021-07-17T04:39:00Z,00000200,00000000,0000.66,0000.04,-000.11,0000.07,0000.26,-000.34,0000.30,0000.43,0000.20,18.4,24.6,06.8,04.6,0676.6,31.0
2021-07-17T04:40:00Z,00000200,00000000,0000.52,0000.20,0000.12,-000.29,0000.14,-000.20,-000.27,-000.39,-000.25,18.4,24.6,06.8,04.7,0676.6,31.0
2021-07-17T04:41:00Z,00000200,00000000,0000.65,0000.30,0000.02,-000.32,0000.26,-000.11,0000.01,0000.15,0000.18,18.4,24.6,06.8,04.7,0676.6,31.0
2021-07-17T04:42:00Z,00000200,00000000,0000.59,0000.05,-000.19,0000.33,-000.23,-000.11,0000.05,-000.22,-000.35,18.4,24.6,06.8,04.6,0676.6,31.0
2021-07-17T04:43:00Z,00000200,00000000,0000.64,-000.17,-000.25,-000.09,-000.22,-000.12,-000.04,0000.15,0000.13,18.4,24.6,06.8,04.7,0676.6,31.0
2021-07-17T04:44:00Z,00000200,00000000,0000.57,-000.06,-000.29,-000.43,-000.06,-000.23,-000.03,-000.26,0000.24,18.4,24.6,06.8,04.7,0676.6,31.0
2021-07-17T04:45:00Z,00000200,00000000,0000.47,0000.07,-000.28,0000.27,0000.16,-000.02,0000.14,0000.25,-000.19,18.3,24.6,06.8,04.7,0676.6,31.0
2021-07-17T04:46:00Z,00000200,00000000,0000.42,0000.05,-000.21,-000.35,0000.01,0000.05,-000.03,0000.18,0000.13,18.3,24.6,06.9,04.7,0676.6,31.0
2021-07-17T04:47:00Z,00000200,00000000,0000.40,0000.35,0000.14,-000.53,-000.06,0000.18,-000.31,-000.22,-000.16,18.3,24.5,06.8,04.6,0676.6,31.0
2021-07-17T04:48:00Z,00000200,00000000,0000.68,-000.08,-000.18,-000.47,0000.06,-000.14,0000.36,0000.03,-000.15,18.3,24.5,06.8,04.6,0676.6,31.0
2021-07-17T04:49:00Z,00000200,00000000,-000.09,0000.26,0000.01,-000.43,0000.15,0000.14,0000.00,-000.01,0000.19,18.2,24.5,06.9,04.7,0676.6,31.0
2021-07-17T04:50:00Z,00000200,00000000,0000.51,0000.07,0000.08,0000.17,0000.18,-000.24,0000.16,-000.10,0000.08,18.2,24.5,06.9,04.7,0676.6,31.0
2021-07-17T04:51:00Z,00000200,00000000,0000.86,0000.08,0000.04,0000.46,-000.10,0000.24,0000.23,0000.26,0000.08,18.3,24.5,06.9,04.7,0676.5,31.0
2021-07-17T04:52:00Z,00000200,00000000,0000.45,0000.01,0000.05,0000.38,-000.02,-000.16,-000.20,0000.41,-000.12,18.4,24.6,06.8,04.7,0676.5,31.0
2021-07-17T04:53:00Z,00000200,00000000,0001.10,0000.27,-000.12,0000.06,0000.08,-000.07,0000.01,-000.52,0000.07,18.4,24.6,06.8,04.6,0676.5,31.0
2021-07-17T04:54:00Z,00000200,00000000,0000.19,0000.02,-000.45,-000.27,0000.31,-000.30,0000.02,0000.19,-000.17,18.5,24.7,06.8,04.6,0676.6,31.0
2021-07-17T04:55:00Z,00000200,00000000,0000.30,0000.02,-000.13,-000.17,0000.31,0000.01,-000.14,-000.03,0000.24,18.5,24.7,06.7,04.6,0676.5,31.0
2021-07-17T04:56:00Z,00000200,00000000,0001.00,0000.26,-000.10,0000.31,-000.02,0000.03,-000.12,-000.31,-000.23,18.4,24.6,06.7,04.6,0676.5,31.0
2021-07-17T04:57:00Z,00000200,40000000,,,,,,,0000.62,0000.32,0000.22,18.5,24.7,06.4,04.4,0676.5,31.0
2021-07-17T04:58:00Z,00000200,60000000,,,,,,,-000.43,0000.04,0000.13,18.2,24.8,06.9,04.6,0675.5,31.0
2021-07-17T04:59:00Z,00000200,20000000,,,,,,,-000.14,-000.15,-000.39,18.2,24.9,06.6,04.4,0675.5,31.0
